Regional Weather Roundup
Issued by NWS

Home | Current Version | Previous Version | Text Only | Print | Product List | Glossary On
Versions: 1 2 3 4 5 6 7 8 9 10 11 12 13 14 15 16 17 18 19 20 21 22 23 24 25 26 27 28 29 30 31 32 33 34 35 36 37 38 39 40 41 42 43 44 45 46 47 48 49 50
443
ASUS43 KTOP 231759
RWRKS

WEATHER ROUNDUP FOR KANSAS
NATIONAL WEATHER SERVICE GOODLAND KS
100 PM CDT MON MAY 23 2016

NOTE:  "FAIR" INDICATES FEW OR NO CLOUDS BELOW 12,000 FEET WITH NO
SIGNIFICANT WEATHER AND/OR OBSTRUCTIONS TO VISIBILITY.

KSZ001>006-013>018-027>032-041>047-231900-
NORTHWEST KANSAS

CITY           SKY/WX    TMP DP  RH WIND       PRES   REMARKS
GOODLAND       SUNNY     72  47  40 E10       29.87F
6HR MIN TEMP:  53; 6HR MAX TEMP:  72;

HAYS           MOSUNNY   75  61  60 S16       29.80F
HILL CITY      PTSUNNY   75  58  55 SE6       29.81F
6HR MIN TEMP:  57; 6HR MAX TEMP:  75;

RUSSELL        CLOUDY    76  61  59 S22G28    29.79F
6HR MIN TEMP:  67; 6HR MAX TEMP:  76;

$$

KSZ061>065-074>080-084>089-231900-
SOUTHWEST KANSAS

CITY           SKY/WX    TMP DP  RH WIND       PRES   REMARKS
DODGE CITY     PTSUNNY   74  59  59 E6        29.81S
6HR MIN TEMP:  59; 6HR MAX TEMP:  76;

ELKHART          N/A     75  60  59 N3          N/A
GARDEN CITY    PTSUNNY   76  59  55 VRB6      29.80S
6HR MIN TEMP:  58; 6HR MAX TEMP:  76;

GREAT BEND     CLOUDY    73  61  64 SE24      29.82S
LIBERAL        SUNNY     79  61  53 S7        29.81S
$$

KSZ066>073-081>083-090>101-231900-
SOUTHEAST KANSAS

CITY           SKY/WX    TMP DP  RH WIND       PRES   REMARKS
CHANUTE        LGT RAIN  68  62  81 S9        29.91R
6HR MIN TEMP:  66; 6HR MAX TEMP:  75; 6HR PCP:  0.02;

COFFEYVILLE    CLOUDY    67  63  87 NW8       29.89R
6HR MIN TEMP:  64; 6HR MAX TEMP:  70; 6HR PCP:  0.01;

HUTCHINSON     CLOUDY    63  60  90 S13       29.84F
6HR MIN TEMP:  63; 6HR MAX TEMP:  68; 6HR PCP:  1.83;

MEDICINE LODGE   N/A     77  64  64 SE12      29.81R
NEWTON         CLOUDY    61  55  82 S13       29.88F
PARSONS        CLOUDY    69  65  86 W8        29.91R
6HR MIN TEMP:  66; 6HR MAX TEMP:  71; 6HR PCP:  0.03;

WICHITA INTL   TSTM      63  61  93 SE8       29.87S FOG
6HR MIN TEMP:  61; 6HR MAX TEMP:  69;

WICHITA JABRA  TSTM      61  61 100 SE14      29.87F
6HR MIN TEMP:  60; 6HR MAX TEMP:  68; 6HR PCP:  1.03;

WICHITA MCCONL TSTM      61  61 100 S13       29.87F FOG
WINFIELD       TSTM      64  63  96 NE9       29.89R FOG
6HR MIN TEMP:  64; 6HR MAX TEMP:  68; 6HR PCP:  0.37;

$$

KSZ007>012-019>026-033>040-048>060-102>105-231900-
NORTHEAST KANSAS

CITY           SKY/WX    TMP DP  RH WIND       PRES   REMARKS
CONCORDIA      CLOUDY    70  64  81 S16       29.82R
6HR MIN TEMP:  65; 6HR MAX TEMP:  70; 6HR PCP:  0.02;

EMPORIA        RAIN      63  61  93 SW18G28   29.93S FOG
6HR MIN TEMP:  63; 6HR MAX TEMP:  72; 6HR PCP:  0.27;

LAWRENCE       TSTM      66  62  87 S10       29.91R
6HR MIN TEMP:  65; 6HR MAX TEMP:  74; 6HR PCP:  0.01;

MANHATTAN      CLOUDY    68  63  84 S13       29.77F
6HR MIN TEMP:  67; 6HR MAX TEMP:  73; 6HR PCP:  0.10;

OLATHE IND     CLOUDY    65  62  90 S6        29.93R
6HR MIN TEMP:  63; 6HR MAX TEMP:  72; 6HR PCP:  0.12;

OLATHE EXE     CLOUDY    64  62  93 SW3       29.93R THUNDER
6HR MIN TEMP:  61; 6HR MAX TEMP:  68; 6HR PCP:  0.66;

SALINA         CLOUDY    68  62  81 S12G22    29.82S
6HR MIN TEMP:  67; 6HR MAX TEMP:  71; 6HR PCP:  0.14;

TOPEKA BILLARD LGT RAIN  68  62  81 S9        29.89S
6HR MIN TEMP:  66; 6HR MAX TEMP:  73; 6HR PCP:  0.13;

TOPEKA FORBES  LGT RAIN  67  63  87 S9        29.89F
6HR MIN TEMP:  66; 6HR MAX TEMP:  76; 6HR PCP:  0.03;

$$




USA.gov is the U.S. government's official web portal to all federal, state and local government web resources and services.